Location: Monrovia
(34.7865°N, 86.7139°W)
Time: 00:43:04
(UTC+00:00)

Cosmos 676 Rocket - Pass Details

Date: 14 July 2020
Orbit: 753 x 785 km, 74.0° (Epoch: 12 August)

Event Time Altitude Azimuth Distance (km) Brightness Sun altitude
Exits shadow 07:57:52 71° 292° (WNW) 814 4.0 -26.3°
Drops below altitude 10° 08:03:05 10° 13° (NNE) 2,326 7.4 -25.7°
Sets 08:05:30 0° 15° (NNE) 3,261 8.4 -25.4°
